Back to catalog

DELTA 1 DEB

AlivePO
NORAD 7958·DEBRIS·🇺🇸 United States

Launched Jul 23, 1972 from Vandenberg Space Force Base

Loading…

Next Passes (next 24 hours)

TLE

FreshSource: Space-Track

Epoch: Sep 13, 2026, 23:28 UTC

1 07958U 72058CN  26256.97793175  .00000653  00000-0  29984-3 0  9999
2 07958  97.6541  86.3915 0295908 225.7546 131.8989 14.03313788718721

Track DELTA 1 DEB in real time with AllMySat

Download on the App Store